W2PJ Weather Reports


Display with metric or nautical units.
time (UTC)temp
F
wind
direction
speed
MPH
gust
MPH
rain 1hr
in
rain 24hr
in
rain mn
in
humidity
%
barometer
mb
20260831155605 65 159 0.0 1.0 0.02 0.02 0.02 92 1020.4
20260831155125 65 176 0.0 0.0 0.02 0.02 0.02 92 1020.5
20260831154601 65 136 0.0 0.0 0.02 0.02 0.02 92 1020.6
20260831154055 65 135 0.0 0.0 0.01 0.01 0.01 92 1020.7
20260831153613 65 91 0.0 0.0 0.01 0.01 0.01 91 1020.6
20260831153029 65 116 0.0 0.0 0.01 0.01 0.01 91 1020.7
20260831152551 65 140 0.0 0.0 0.01 0.01 0.01 91 1020.9
20260831152109 65 127 0.0 0.0 0.01 0.01 0.01 91 1020.9
20260831151637 65 148 0.0 0.0 0.01 0.01 0.01 90 1020.9
20260831151008 66 167 0.0 0.0 0.00 0.00 0.00 90 1020.9
20260831150527 66 170 0.0 0.0 0.00 0.00 0.00 89 1020.9
20260831150051 66 158 0.0 0.0 0.00 0.00 0.00 89 1020.8
20260831145610 66 129 0.0 4.0 0.00 0.00 0.00 89 1020.6
20260831145127 66 153 0.0 4.0 0.00 0.00 0.00 88 1020.4
20260831144501 66 175 0.0 1.0 0.00 0.00 0.00 89 1020.3
20260831144019 66 136 0.0 1.0 0.00 0.00 0.00 89 1020.3
20260831143534 66 125 0.0 0.0 0.00 0.00 0.00 90 1020.3
20260831143105 66 81 0.0 0.0 0.00 0.00 0.00 90 1020.3
20260831142509 66 111 0.0 0.0 0.00 0.00 0.00 90 1020.5
20260831142026 65 126 0.0 0.0 0.00 0.00 0.00 89 1020.6
20260831141548 66 122 0.0 0.0 0.00 0.00 0.00 89 1020.6
20260831141103 66 165 0.0 0.0 0.00 0.00 0.00 89 1020.7
20260831140622 66 143 0.0 0.0 0.00 0.00 0.00 89 1020.5
20260831140017 66 105 0.0 0.0 0.00 0.00 0.00 90 1020.4
20260831135531 65 171 0.0 0.0 0.00 0.00 0.00 90 1020.6
20260831135047 65 141 0.0 0.0 0.00 0.00 0.00 90 1020.6
20260831134600 65 119 0.0 0.0 0.00 0.00 0.00 91 1020.6
20260831134111 64 176 0.0 0.0 0.00 0.00 0.00 91 1020.6
20260831133632 64 158 0.0 0.0 0.00 0.00 0.00 91 1020.6
20260831133151 64 156 0.0 1.0 0.00 0.00 0.00 91 1020.5
20260831132519 64 158 0.0 1.0 0.00 0.00 0.00 91 1020.5
20260831132033 64 157 0.0 0.0 0.00 0.00 0.00 91 1020.6
20260831131556 64 183 0.0 0.0 0.00 0.00 0.00 92 1020.4
20260831131104 64 152 0.0 0.0 0.00 0.00 0.00 92 1020.5
20260831130622 63 164 0.0 0.0 0.00 0.00 0.00 92 1020.6
20260831130146 63 155 0.0 0.0 0.00 0.00 0.00 92 1020.6
20260831125505 63 112 0.0 0.0 0.00 0.00 0.00 92 1020.7
20260831125025 63 131 0.0 0.0 0.00 0.00 0.00 92 1020.6
20260831124546 63 122 0.0 0.0 0.00 0.00 0.00 92 1020.7
20260831124054 62 120 0.0 0.0 0.00 0.00 0.00 92 1020.8
20260831123613 62 119 0.0 0.0 0.00 0.00 0.00 92 1020.8
20260831123135 62 112 0.0 0.0 0.00 0.00 0.00 92 1020.7
20260831122513 62 147 0.0 0.0 0.00 0.00 0.00 92 1020.9
20260831122029 61 119 0.0 0.0 0.00 0.00 0.00 92 1020.9
20260831121545 61 104 0.0 0.0 0.00 0.00 0.00 92 1020.9
20260831121057 61 141 0.0 1.0 0.00 0.00 0.00 92 1021.0
20260831120613 61 157 0.0 1.0 0.00 0.00 0.00 92 1021.0
20260831120137 61 129 0.0 0.0 0.00 0.00 0.00 92 1021.1
20260831115515 61 153 0.0 0.0 0.00 0.00 0.00 92 1021.1
20260831115035 60 124 0.0 0.0 0.00 0.00 0.00 92 1021.0
20260831114555 60 101 0.0 0.0 0.00 0.00 0.00 92 1021.0
20260831114111 60 140 0.0 0.0 0.00 0.00 0.00 92 1021.0
20260831113627 60 136 0.0 0.0 0.00 0.00 0.00 92 1020.9
20260831113034 60 117 0.0 0.0 0.00 0.00 0.00 92 1020.9
20260831112550 60 138 0.0 0.0 0.00 0.00 0.00 92 1020.9
20260831112107 60 131 0.0 0.0 0.00 0.00 0.00 92 1021.0
20260831111631 60 127 0.0 0.0 0.00 0.00 0.00 92 1020.9
20260831111005 61 137 0.0 0.0 0.00 0.00 0.00 92 1020.9
20260831110527 61 143 0.0 0.0 0.00 0.00 0.00 92 1020.8
20260831110039 60 144 0.0 0.0 0.00 0.00 0.00 92 1020.8
20260831105559 60 143 0.0 0.0 0.00 0.00 0.00 92 1020.8
20260831105117 60 115 0.0 0.0 0.00 0.00 0.00 92 1020.6
20260831104539 60 114 0.0 0.0 0.00 0.00 0.00 92 1020.6
20260831104055 60 127 0.0 0.0 0.00 0.00 0.00 92 1020.6
20260831103615 60 145 0.0 0.0 0.00 0.00 0.00 92 1020.5
20260831103007 60 150 0.0 0.0 0.00 0.00 0.00 92 1020.4
20260831102521 60 144 0.0 0.0 0.00 0.00 0.00 92 1020.4
20260831102035 60 126 0.0 0.0 0.00 0.00 0.00 92 1020.3
20260831101609 60 148 0.0 0.0 0.00 0.00 0.00 92 1020.4
20260831101121 60 141 0.0 0.0 0.00 0.00 0.00 92 1020.4
20260831100506 60 120 0.0 0.0 0.00 0.00 0.00 92 1020.1
20260831100153 60 119 0.0 0.0 0.00 0.00 0.00 92 1020.2
20260831095509 60 133 0.0 0.0 0.00 0.00 0.00 92 1020.1
20260831095035 60 136 0.0 0.0 0.00 0.00 0.00 92 1020.1
20260831094627 60 119 0.0 0.0 0.00 0.00 0.00 92 1020.1
20260831094119 60 138 0.0 0.0 0.00 0.00 0.00 92 1020.2
20260831093635 60 129 0.0 0.0 0.00 0.00 0.00 92 1020.2
20260831093049 60 137 0.0 0.0 0.00 0.00 0.00 92 1020.2
20260831092604 60 140 0.0 0.0 0.00 0.00 0.00 92 1020.3
20260831092120 60 119 0.0 0.0 0.00 0.00 0.00 92 1020.3
20260831091641 60 108 0.0 0.0 0.00 0.00 0.00 92 1020.2
20260831091013 60 126 0.0 0.0 0.00 0.00 0.00 92 1020.2
20260831090533 60 117 0.0 0.0 0.00 0.00 0.00 92 1020.1
20260831090052 60 117 0.0 0.0 0.00 0.00 0.00 92 1020.1
20260831085607 60 141 0.0 0.0 0.00 0.00 0.00 92 1020.3
20260831085124 60 147 0.0 0.0 0.00 0.00 0.00 92 1020.3
20260831084646 60 126 0.0 0.0 0.00 0.00 0.00 92 1020.1
20260831084009 60 136 0.0 0.0 0.00 0.00 0.00 92 1020.2
20260831083528 60 119 0.0 0.0 0.00 0.00 0.00 92 1020.2
20260831083044 61 129 0.0 0.0 0.00 0.00 0.00 92 1020.2
20260831082601 61 134 0.0 0.0 0.00 0.00 0.00 92 1020.2
20260831082123 61 147 0.0 0.0 0.00 0.00 0.00 92 1020.1
20260831081543 61 137 0.0 0.0 0.00 0.00 0.00 92 1020.3
20260831081105 61 145 0.0 0.0 0.00 0.00 0.00 92 1020.2
20260831080621 61 147 0.0 0.0 0.00 0.00 0.00 92 1020.2
20260831080013 61 138 0.0 0.0 0.00 0.00 0.00 92 1020.2
20260831075535 61 174 0.0 0.0 0.00 0.00 0.00 92 1020.2
20260831075054 61 127 0.0 0.0 0.00 0.00 0.00 92 1020.1
20260831074621 61 126 0.0 0.0 0.00 0.00 0.00 92 1020.1
20260831074009 61 147 0.0 0.0 0.00 0.00 0.00 92 1020.1
20260831073521 61 136 0.0 0.0 0.00 0.00 0.00 92 1020.1
20260831073037 61 124 0.0 0.0 0.00 0.00 0.00 92 1020.2
20260831072554 61 141 0.0 0.0 0.00 0.00 0.00 92 1020.2
20260831072112 61 137 0.0 0.0 0.00 0.00 0.00 92 1020.2
20260831071637 61 150 0.0 0.0 0.00 0.00 0.00 92 1020.3
20260831071015 61 145 0.0 0.0 0.00 0.00 0.00 92 1020.3
20260831070536 61 167 0.0 0.0 0.00 0.00 0.00 92 1020.3
20260831070057 61 145 0.0 0.0 0.00 0.00 0.00 92 1020.2
20260831065616 61 143 0.0 0.0 0.00 0.00 0.00 92 1020.2
20260831065133 61 130 0.0 0.0 0.00 0.00 0.00 92 1020.3
20260831064533 61 130 0.0 0.0 0.00 0.00 0.00 92 1020.4
20260831064046 61 133 0.0 0.0 0.00 0.00 0.00 92 1020.4
20260831063609 61 133 0.0 0.0 0.00 0.00 0.00 92 1020.5
20260831063136 61 133 0.0 0.0 0.00 0.00 0.00 92 1020.4
20260831062511 61 133 0.0 0.0 0.00 0.00 0.00 92 1020.3
20260831062031 61 133 0.0 0.0 0.00 0.00 0.00 92 1020.4
20260831061541 61 133 0.0 0.0 0.00 0.00 0.00 92 1020.3
20260831061101 61 133 0.0 0.0 0.00 0.00 0.00 92 1020.4
20260831060616 61 133 0.0 0.0 0.00 0.00 0.00 92 1020.4
20260831060141 61 133 0.0 0.0 0.00 0.00 0.00 92 1020.6
20260831055507 61 126 0.0 0.0 0.00 0.00 0.00 92 1020.7
20260831055025 61 143 0.0 0.0 0.00 0.00 0.00 92 1020.7
20260831054547 61 157 0.0 0.0 0.00 0.00 0.00 92 1020.6
20260831054106 61 140 0.0 0.0 0.00 0.00 0.00 92 1020.7
20260831053621 61 140 0.0 0.0 0.00 0.00 0.00 92 1020.7
20260831053048 61 133 0.0 0.0 0.00 0.00 0.00 92 1020.7
20260831052558 61 114 0.0 0.0 0.00 0.00 0.00 92 1020.8
20260831052122 61 114 0.0 0.0 0.00 0.00 0.00 92 1020.9
20260831051536 61 115 0.0 0.0 0.00 0.00 0.00 92 1020.8
20260831051051 61 138 0.0 0.0 0.00 0.00 0.00 92 1021.0
20260831050611 61 139 0.0 0.0 0.00 0.00 0.00 92 1021.0
20260831050135 60 138 0.0 0.0 0.00 0.00 0.00 92 1021.0
20260831045503 60 138 0.0 0.0 0.00 0.00 0.00 92 1021.0
20260831045027 60 138 0.0 0.0 0.00 0.00 0.00 92 1020.9
20260831044606 60 145 0.0 0.0 0.00 0.00 0.00 92 1020.8
20260831044121 60 140 0.0 0.0 0.00 0.00 0.00 92 1020.8
20260831043630 60 140 0.0 0.0 0.00 0.00 0.00 92 1020.8
20260831043001 60 131 0.0 0.0 0.00 0.00 0.00 92 1020.9
20260831042519 60 131 0.0 0.0 0.00 0.00 0.00 92 1020.9
20260831042036 60 140 0.0 0.0 0.00 0.00 0.00 92 1020.8
20260831041557 61 140 0.0 0.0 0.00 0.00 0.00 92 1020.9
20260831041119 61 140 0.0 0.0 0.00 0.00 0.00 92 1020.9
20260831040502 61 141 0.0 0.0 0.00 0.00 0.00 92 1020.9
20260831040004 61 140 0.0 0.0 0.00 0.00 0.00 92 1020.9
20260831035554 61 140 0.0 0.0 0.00 0.00 0.00 92 1020.9
20260831035115 61 140 0.0 0.0 0.00 0.00 0.00 92 1020.8
20260831034532 61 138 0.0 0.0 0.00 0.00 0.00 92 1020.8
20260831034052 61 140 0.0 0.0 0.00 0.00 0.00 92 1020.8
20260831033612 61 140 0.0 0.0 0.00 0.00 0.00 92 1020.8
20260831033138 61 140 0.0 0.0 0.00 0.00 0.00 92 1020.7
20260831032514 61 140 0.0 0.0 0.00 0.00 0.00 92 1020.7
20260831032034 61 140 0.0 0.0 0.00 0.00 0.00 92 1020.6
20260831031603 62 140 0.0 0.0 0.00 0.00 0.00 92 1020.5
20260831031119 62 140 0.0 0.0 0.00 0.00 0.00 92 1020.6
20260831030505 62 145 0.0 0.0 0.00 0.00 0.00 92 1020.7
20260831030052 62 131 0.0 0.0 0.00 0.00 0.00 92 1020.7
20260831025610 62 131 0.0 0.0 0.00 0.00 0.00 92 1020.7
20260831025122 62 130 0.0 0.0 0.00 0.00 0.00 92 1020.8
20260831024643 62 130 0.0 0.0 0.00 0.00 0.00 92 1020.7
20260831024003 62 130 0.0 0.0 0.00 0.00 0.00 92 1020.6
20260831023520 62 130 0.0 0.0 0.00 0.00 0.00 92 1020.7
20260831023049 62 131 0.0 0.0 0.00 0.00 0.00 92 1020.6
20260831022602 63 131 0.0 0.0 0.00 0.00 0.00 92 1020.6
20260831022121 63 130 0.0 0.0 0.00 0.00 0.00 92 1020.6
20260831021647 63 129 0.0 0.0 0.00 0.00 0.00 92 1020.5
20260831021008 63 157 0.0 0.0 0.00 0.00 0.00 92 1020.5
20260831020529 63 157 0.0 0.0 0.00 0.00 0.00 92 1020.5
20260831020109 63 169 0.0 0.0 0.00 0.00 0.00 92 1020.4
20260831015609 63 195 0.0 0.0 0.00 0.00 0.00 92 1020.5
20260831015128 63 200 0.0 0.0 0.00 0.00 0.00 92 1020.5
20260831014526 63 221 0.0 0.0 0.00 0.00 0.00 92 1020.5
20260831014048 63 181 0.0 0.0 0.00 0.00 0.00 92 1020.6
20260831013610 63 175 0.0 0.0 0.00 0.00 0.00 92 1020.6
20260831013136 63 200 0.0 0.0 0.00 0.00 0.00 92 1020.5
20260831012508 63 204 0.0 0.0 0.00 0.00 0.00 92 1020.6
20260831012025 63 247 0.0 0.0 0.00 0.00 0.00 92 1020.5
20260831011601 64 252 0.0 0.0 0.00 0.00 0.00 92 1020.5
20260831011105 64 247 0.0 0.0 0.00 0.00 0.00 92 1020.5
20260831010624 64 216 0.0 0.0 0.00 0.00 0.00 92 1020.5
20260831010147 64 258 0.0 0.0 0.00 0.00 0.00 92 1020.5
20260831005508 64 318 0.0 0.0 0.00 0.00 0.00 92 1020.6
20260831005024 64 259 0.0 0.0 0.00 0.00 0.00 92 1020.4
20260831004551 64 321 0.0 0.0 0.00 0.00 0.00 92 1020.4
20260831004108 64 299 0.0 0.0 0.00 0.00 0.00 92 1020.4
20260831003632 64 294 0.0 0.0 0.00 0.00 0.00 92 1020.3
20260831003150 64 272 0.0 0.0 0.00 0.00 0.00 92 1020.1
20260831002515 64 268 0.0 0.0 0.00 0.00 0.00 92 1019.9
20260831002033 64 249 0.0 0.0 0.00 0.00 0.00 92 1019.9
20260831001550 64 276 0.0 1.0 0.00 0.00 0.00 92 1019.8
20260831001106 64 289 0.0 1.0 0.00 0.00 0.00 92 1019.6
20260831000627 64 282 0.0 0.0 0.00 0.00 0.00 92 1019.6
20260831000146 64 258 0.0 0.0 0.00 0.00 0.00 92 1019.5
20260830235522 64 293 0.0 0.0 0.00 0.00 0.00 92 1019.5
20260830235040 64 259 0.0 0.0 0.00 0.00 0.00 92 1019.5
20260830234611 64 276 0.0 0.0 0.00 0.00 0.00 92 1019.4
20260830234120 64 254 0.0 0.0 0.00 0.00 0.00 92 1019.3
20260830233508 64 280 0.0 0.0 0.00 0.00 0.00 92 1019.4
20260830233052 64 259 0.0 0.0 0.00 0.00 0.00 92 1019.4
20260830232613 64 261 0.0 0.0 0.00 0.00 0.00 92 1019.2
20260830232126 64 247 0.0 0.0 0.00 0.00 0.00 92 1019.2
20260830231541 64 254 0.0 1.0 0.00 0.00 0.00 92 1019.3
20260830231102 64 252 0.0 0.0 0.00 0.00 0.00 92 1019.3
20260830230619 64 221 0.0 0.0 0.00 0.00 0.00 92 1019.3
20260830230144 64 264 0.0 0.0 0.00 0.00 0.00 92 1019.3
20260830225502 63 244 0.0 0.0 0.00 0.00 0.00 92 1019.4
20260830225018 63 297 0.0 0.0 0.00 0.00 0.00 92 1019.4
20260830224607 63 271 0.0 0.0 0.00 0.00 0.00 92 1019.3
20260830224121 63 254 0.0 0.0 0.00 0.00 0.00 92 1019.4
20260830223504 63 261 0.0 0.0 0.00 0.00 0.00 92 1019.3
20260830223044 63 276 0.0 0.0 0.00 0.00 0.00 92 1019.3
20260830222600 63 310 0.0 0.0 0.00 0.00 0.00 92 1019.3
20260830222123 63 273 0.0 0.0 0.00 0.00 0.00 92 1019.2
20260830221638 63 278 0.0 0.0 0.00 0.00 0.00 92 1019.2
20260830221016 63 283 0.0 0.0 0.00 0.00 0.00 92 1019.3
20260830220534 63 248 0.0 0.0 0.00 0.00 0.00 92 1019.3
20260830215606 64 242 0.0 0.0 0.00 0.00 0.00 92 1019.2
20260830215122 64 287 0.0 0.0 0.00 0.00 0.00 91 1019.1
20260830214543 64 272 0.0 0.0 0.00 0.00 0.00 91 1019.1
20260830214059 64 261 0.0 0.0 0.00 0.00 0.00 91 1019.1
20260830213616 64 273 0.0 0.0 0.00 0.00 0.00 92 1019.2
20260830213138 64 268 0.0 0.0 0.00 0.00 0.00 92 1019.2
20260830212511 64 242 0.0 0.0 0.00 0.00 0.00 92 1019.2
20260830212028 64 245 0.0 1.0 0.00 0.00 0.00 92 1019.2
20260830211556 64 245 0.0 1.0 0.00 0.00 0.00 92 1019.2
20260830211104 64 233 0.0 0.0 0.00 0.00 0.00 92 1019.2
20260830210622 64 212 0.0 0.0 0.00 0.00 0.00 92 1019.2
20260830210147 64 216 0.0 0.0 0.00 0.00 0.00 92 1019.3
20260830205505 64 251 0.0 0.0 0.00 0.00 0.00 92 1019.3
20260830205019 64 253 0.0 0.0 0.00 0.00 0.00 92 1019.4
20260830204540 64 221 0.0 0.0 0.00 0.00 0.00 92 1019.3
20260830204101 64 249 0.0 0.0 0.00 0.00 0.00 92 1019.2
20260830203621 63 252 0.0 0.0 0.00 0.00 0.00 92 1019.3
20260830203142 63 293 0.0 0.0 0.00 0.00 0.00 92 1019.2
20260830202509 63 269 0.0 0.0 0.00 0.00 0.00 92 1019.2
20260830202028 63 289 0.0 0.0 0.00 0.00 0.00 92 1019.3
20260830201545 63 293 0.0 0.0 0.00 0.00 0.00 92 1019.2
20260830201105 63 278 0.0 0.0 0.00 0.00 0.00 92 1019.3
20260830200621 63 290 0.0 0.0 0.00 0.00 0.00 92 1019.3
20260830200148 63 325 0.0 0.0 0.00 0.00 0.00 92 1019.3
20260830195516 63 325 0.0 0.0 0.00 0.00 0.00 92 1019.3
20260830195034 63 289 0.0 0.0 0.00 0.00 0.00 92 1019.3
20260830194549 63 288 0.0 0.0 0.00 0.00 0.00 92 1019.4
20260830194104 63 280 0.0 0.0 0.00 0.00 0.00 92 1019.4
20260830193625 63 10 0.0 0.0 0.00 0.00 0.00 91 1019.5
20260830193039 64 269 0.0 0.0 0.00 0.00 0.00 91 1019.6
20260830192553 64 85 0.0 0.0 0.00 0.00 0.00 91 1019.6
20260830192113 64 56 0.0 0.0 0.00 0.00 0.00 90 1019.6
20260830191530 64 56 0.0 0.0 0.00 0.00 0.00 90 1019.8
20260830191047 65 339 0.0 0.0 0.00 0.00 0.00 89 1019.8
20260830190612 65 34 0.0 0.0 0.00 0.00 0.00 88 1019.8
20260830190139 65 22 0.0 0.0 0.00 0.00 0.00 87 1019.8
20260830185508 66 318 0.0 1.0 0.00 0.00 0.00 86 1019.7
20260830185024 66 15 0.0 3.0 0.00 0.00 0.00 85 1019.8
20260830184606 66 301 0.0 3.0 0.00 0.00 0.00 84 1019.8
20260830184115 66 267 0.0 2.0 0.00 0.00 0.00 83 1019.9
20260830183633 67 67 0.0 6.0 0.00 0.00 0.00 82 1019.8
20260830183050 67 7 0.0 7.0 0.00 0.00 0.00 80 1019.8
20260830182607 68 254 0.0 7.0 0.00 0.00 0.00 77 1019.7
20260830182125 69 20 0.0 7.0 0.00 0.00 0.00 76 1019.7
20260830181650 69 257 0.0 4.0 0.00 0.00 0.00 74 1019.6
20260830181016 70 338 0.0 3.0 0.00 0.00 0.00 73 1019.6
20260830180535 70 317 0.0 3.0 0.00 0.00 0.00 72 1019.6
20260830180056 70 265 0.0 5.0 0.00 0.00 0.00 72 1019.6
20260830175605 71 292 0.0 7.0 0.00 0.00 0.00 71 1019.4
20260830175121 71 261 0.0 7.0 0.00 0.00 0.00 71 1019.5
20260830174645 71 276 1.0 6.0 0.00 0.00 0.00 71 1019.5
20260830174017 71 269 0.0 3.0 0.00 0.00 0.00 72 1019.5
20260830173536 70 255 0.0 2.0 0.00 0.00 0.00 73 1019.4
20260830173054 70 72 0.0 2.0 0.00 0.00 0.00 72 1019.5
20260830172617 70 292 0.0 5.0 0.00 0.00 0.00 72 1019.6
20260830172131 70 288 0.0 5.0 0.00 0.00 0.00 71 1019.6
20260830171544 71 316 0.0 3.0 0.00 0.00 0.00 71 1019.6
20260830171102 71 257 0.0 6.0 0.00 0.00 0.00 69 1019.7
20260830170622 71 249 0.0 6.0 0.00 0.00 0.00 69 1019.6
20260830170030 72 259 0.0 5.0 0.00 0.00 0.00 69 1019.6
20260830165550 71 280 1.0 7.0 0.00 0.00 0.00 67 1019.5
20260830165107 72 299 1.0 7.0 0.00 0.00 0.00 68 1019.5
20260830164634 71 252 0.0 4.0 0.00 0.00 0.00 67 1019.5
20260830164006 71 290 0.0 3.0 0.00 0.00 0.00 68 1019.6
20260830163522 71 272 0.0 3.0 0.00 0.00 0.00 68 1019.6
20260830163052 71 231 0.0 5.0 0.00 0.00 0.00 68 1019.7
20260830162606 71 249 1.0 5.0 0.00 0.00 0.00 67 1019.8
20260830162124 71 268 0.0 5.0 0.00 0.00 0.00 69 1019.7
20260830161647 71 220 0.0 4.0 0.00 0.00 0.00 71 1019.8
20260830161014 71 193 0.0 4.0 0.00 0.00 0.00 72 1019.9
20260830160529 71 178 0.0 0.0 0.00 0.00 0.00 72 1019.8
20260830160046 71 247 0.0 0.0 0.00 0.00 0.00 74 1019.8